Location: Lahas
(43.5538°N, 0.8906°E)
Time: 11:45:08
(UTC+00:00)

ACS3 Solar Sail - Pass Details

Date: 15 May 2026
Orbit: 881 x 950 km, 97.2° (Epoch: 6 June)

Event Time Altitude Azimuth Distance (km) Brightness Sun altitude
Rises 23:28:52 0° 26° (NNE) 3,494 5.6 -27.2°
Reaches altitude 10° 23:32:00 10° 44° (NE) 2,547 4.5 -27.2°
Maximum altitude 23:36:00 20° 89° (E) 1,949 3.3 -27.3°
Enters shadow 23:36:19 19° 94° (E) 1,954 3.3 -27.3°
